Hourly Weather Municipio Hato Corozal

Today, 29 September, Wednesday

Time Temperature Precipitation Wind Pressure Humidity
00:00 +24°C° 0.6 mm 1 mps 735 mmHg 90%
01:00 +24°C° 0.6 mm 1 mps 735 mmHg 90%
02:00 +24°C° 0.1 mm 1 mps 735 mmHg 89%
03:00 +23°C° 0.1 mm 1 mps 735 mmHg 89%
04:00 +23°C° 0.1 mm 1 mps 735 mmHg 88%
05:00 +24°C° 0 mm 1 mps 736 mmHg 86%
06:00 +25°C° 0 mm 1 mps 736 mmHg 85%
07:00 +23°C° 0 mm 0 mps 737 mmHg 83%
08:00 +27°C° 0.1 mm 1 mps 737 mmHg 77%
09:00 +29°C° 0.1 mm 1 mps 738 mmHg 71%
10:00 +31°C° 0.1 mm 2 mps 738 mmHg 65%
11:00 +31°C° 0.4 mm 2 mps 737 mmHg 63%
12:00 +32°C° 0.4 mm 2 mps 736 mmHg 61%
13:00 +34°C° 0.4 mm 2 mps 735 mmHg 59%
14:00 +32°C° 0.6 mm 2 mps 735 mmHg 64%
15:00 +31°C° 0.6 mm 2 mps 735 mmHg 70%
16:00 +30°C° 0.6 mm 2 mps 734 mmHg 75%
17:00 +28°C° 1.5 mm 2 mps 735 mmHg 80%
18:00 +27°C° 1.5 mm 1 mps 735 mmHg 86%
19:00 +25°C° 1.5 mm 1 mps 736 mmHg 91%
20:00 +25°C° 0.4 mm 1 mps 736 mmHg 91%
21:00 +25°C° 0.4 mm 1 mps 736 mmHg 91%
22:00 +25°C° 0.4 mm 1 mps 737 mmHg 91%
23:00 +24°C° 0 mm 1 mps 736 mmHg 91%

Tomorrow, 30 September, Thursday

Time Temperature Precipitation Wind Pressure Humidity
00:00 +24°C° 0 mm 1 mps 736 mmHg 91%
01:00 +24°C° 0 mm 1 mps 735 mmHg 91%
02:00 +24°C° 0 mm 1 mps 735 mmHg 90%
03:00 +24°C° 0 mm 1 mps 735 mmHg 90%
04:00 +24°C° 0 mm 1 mps 735 mmHg 89%
05:00 +22°C° 0 mm 0 mps 735 mmHg 88%
06:00 +23°C° 0 mm 0 mps 736 mmHg 86%
07:00 +23°C° 0 mm 0 mps 737 mmHg 85%
08:00 +25°C° 0 mm 0 mps 737 mmHg 76%
09:00 +27°C° 0 mm 0 mps 737 mmHg 68%
10:00 +29°C° 0 mm 0 mps 737 mmHg 59%
11:00 +32°C° 0.1 mm 1 mps 737 mmHg 58%
12:00 +32°C° 0.1 mm 1 mps 736 mmHg 57%
13:00 +34°C° 0.1 mm 2 mps 735 mmHg 55%
14:00 +32°C° 0.6 mm 1 mps 735 mmHg 61%
15:00 +31°C° 0.6 mm 1 mps 734 mmHg 68%
16:00 +30°C° 0.6 mm 1 mps 734 mmHg 74%
17:00 +28°C° 0.6 mm 1 mps 734 mmHg 80%
18:00 +27°C° 0.6 mm 1 mps 735 mmHg 85%
19:00 +23°C° 0.6 mm 0 mps 735 mmHg 91%
20:00 +25°C° 0.4 mm 1 mps 736 mmHg 91%
21:00 +25°C° 0.4 mm 1 mps 736 mmHg 90%
22:00 +25°C° 0.4 mm 1 mps 736 mmHg 90%
23:00 +25°C° 0 mm 1 mps 736 mmHg 90%

Day after tomorrow, 1 October, Friday

Time Temperature Precipitation Wind Pressure Humidity
00:00 +24°C° 0 mm 1 mps 735 mmHg 89%
01:00 +24°C° 0 mm 1 mps 735 mmHg 88%
02:00 +24°C° 0 mm 1 mps 735 mmHg 88%
03:00 +24°C° 0 mm 1 mps 735 mmHg 88%
04:00 +24°C° 0 mm 1 mps 734 mmHg 87%
05:00 +24°C° 0.1 mm 1 mps 735 mmHg 86%
06:00 +25°C° 0.1 mm 1 mps 736 mmHg 84%
07:00 +24°C° 0.1 mm 0 mps 736 mmHg 82%
08:00 +28°C° 0.2 mm 1 mps 737 mmHg 76%
09:00 +29°C° 0.2 mm 1 mps 737 mmHg 70%
10:00 +31°C° 0.2 mm 1 mps 737 mmHg 64%
11:00 +32°C° 0.4 mm 1 mps 737 mmHg 62%
12:00 +32°C° 0.4 mm 1 mps 736 mmHg 59%
13:00 +33°C° 0.4 mm 1 mps 735 mmHg 57%
14:00 +32°C° 0.3 mm 1 mps 734 mmHg 61%
15:00 +32°C° 0.3 mm 1 mps 734 mmHg 65%
16:00 +31°C° 0.3 mm 1 mps 733 mmHg 68%
17:00 +29°C° 0.7 mm 1 mps 734 mmHg 75%
18:00 +27°C° 0.7 mm 1 mps 734 mmHg 82%
19:00 +25°C° 0.7 mm 2 mps 735 mmHg 88%
20:00 +25°C° 0.5 mm 1 mps 735 mmHg 89%
21:00 +25°C° 0.5 mm 1 mps 735 mmHg 89%
22:00 +25°C° 0.5 mm 1 mps 736 mmHg 90%
23:00 +25°C° 0.2 mm 1 mps 735 mmHg 89%

2 October, Saturday

Time Temperature Precipitation Wind Pressure Humidity
00:00 +24°C° 0.2 mm 1 mps 735 mmHg 89%
01:00 +24°C° 0.2 mm 1 mps 735 mmHg 89%
02:00 +24°C° 0 mm 1 mps 734 mmHg 89%
03:00 +24°C° 0 mm 1 mps 734 mmHg 89%
04:00 +23°C° 0 mm 1 mps 734 mmHg 89%
05:00 +24°C° 0 mm 1 mps 735 mmHg 86%
06:00 +25°C° 0 mm 1 mps 735 mmHg 84%
07:00 +26°C° 0 mm 1 mps 736 mmHg 81%
08:00 +28°C° 0.1 mm 2 mps 736 mmHg 73%
09:00 +30°C° 0.1 mm 2 mps 736 mmHg 66%
10:00 +33°C° 0.1 mm 3 mps 737 mmHg 58%
11:00 +34°C° 0.1 mm 3 mps 736 mmHg 56%
12:00 +34°C° 0.1 mm 2 mps 735 mmHg 55%
13:00 +35°C° 0.1 mm 2 mps 734 mmHg 54%
14:00 +32°C° 0.3 mm 2 mps 734 mmHg 62%
15:00 +31°C° 0.3 mm 2 mps 733 mmHg 70%
16:00 +30°C° 0.3 mm 2 mps 732 mmHg 77%
17:00 +28°C° 0.5 mm 2 mps 733 mmHg 82%
18:00 +27°C° 0.5 mm 2 mps 733 mmHg 86%
19:00 +26°C° 0.5 mm 2 mps 734 mmHg 91%
20:00 +25°C° 0.1 mm 1 mps 734 mmHg 91%
21:00 +25°C° 0.1 mm 1 mps 735 mmHg 91%
22:00 +25°C° 0.1 mm 1 mps 735 mmHg 91%
23:00 +25°C° 0.2 mm 1 mps 734 mmHg 91%

3 October, Sunday

Time Temperature Precipitation Wind Pressure Humidity
00:00 +24°C° 0.2 mm 1 mps 734 mmHg 90%
01:00 +24°C° 0.2 mm 2 mps 733 mmHg 90%
02:00 +24°C° 0 mm 2 mps 733 mmHg 89%
03:00 +24°C° 0 mm 2 mps 733 mmHg 88%
04:00 +24°C° 0 mm 2 mps 733 mmHg 87%
05:00 +24°C° 0 mm 1 mps 734 mmHg 84%
06:00 +25°C° 0 mm 1 mps 734 mmHg 81%
07:00 +26°C° 0 mm 1 mps 735 mmHg 78%
08:00 +28°C° 0 mm 2 mps 735 mmHg 70%
09:00 +31°C° 0 mm 2 mps 736 mmHg 62%
10:00 +34°C° 0 mm 3 mps 736 mmHg 54%
11:00 +34°C° 0 mm 3 mps 735 mmHg 53%
12:00 +35°C° 0 mm 3 mps 734 mmHg 52%
13:00 +35°C° 0 mm 3 mps 733 mmHg 52%
14:00 +34°C° 0.1 mm 2 mps 733 mmHg 58%
15:00 +32°C° 0.1 mm 2 mps 733 mmHg 65%
16:00 +30°C° 0.1 mm 1 mps 732 mmHg 71%
17:00 +29°C° 0.3 mm 1 mps 733 mmHg 77%
18:00 +28°C° 0.3 mm 2 mps 733 mmHg 82%
19:00 +26°C° 0.3 mm 2 mps 734 mmHg 87%
20:00 +26°C° 0 mm 2 mps 734 mmHg 88%
21:00 +25°C° 0 mm 2 mps 734 mmHg 88%
22:00 +25°C° 0 mm 2 mps 734 mmHg 88%
23:00 +25°C° 0 mm 2 mps 734 mmHg 89%

4 October, Monday

Time Temperature Precipitation Wind Pressure Humidity
00:00 +25°C° 0 mm 2 mps 734 mmHg 89%
01:00 +24°C° 0 mm 2 mps 734 mmHg 89%
02:00 +24°C° 0.1 mm 2 mps 734 mmHg 88%
03:00 +24°C° 0.1 mm 2 mps 734 mmHg 87%
04:00 +24°C° 0.1 mm 2 mps 734 mmHg 87%
05:00 +25°C° 0 mm 2 mps 734 mmHg 83%
06:00 +26°C° 0 mm 1 mps 735 mmHg 80%
07:00 +27°C° 0 mm 1 mps 735 mmHg 76%
08:00 +29°C° 0.1 mm 2 mps 735 mmHg 69%
09:00 +31°C° 0.1 mm 2 mps 736 mmHg 61%
10:00 +34°C° 0.1 mm 2 mps 736 mmHg 53%
11:00 +34°C° 0.1 mm 2 mps 735 mmHg 53%
12:00 +35°C° 0.1 mm 2 mps 734 mmHg 53%
13:00 +35°C° 0.1 mm 2 mps 733 mmHg 53%
14:00 +34°C° 0 mm 2 mps 733 mmHg 58%
15:00 +32°C° 0 mm 2 mps 733 mmHg 63%
16:00 +31°C° 0 mm 1 mps 732 mmHg 68%
17:00 +30°C° 0.1 mm 1 mps 733 mmHg 73%
18:00 +28°C° 0.1 mm 1 mps 733 mmHg 78%
19:00 +27°C° 0.1 mm 2 mps 734 mmHg 83%
20:00 +26°C° 0.1 mm 1 mps 734 mmHg 84%
21:00 +26°C° 0.1 mm 1 mps 735 mmHg 85%
22:00 +26°C° 0.1 mm 1 mps 735 mmHg 86%
23:00 +25°C° 0.3 mm 1 mps 735 mmHg 87%
Show more

We Need Your Consent

Meteoprog and our Service Providers may store and access personal data such as cookies, device identifiers or other similar technologies on your device and process such data to personalise content and ads, as well as provide social media features and to analyse the traffic.

  • Store and/or access information on your device

    Cookies, device identifiers or other information can be stored or accessed on your device for the purposes indicated above.

  • Personalised ads and content, ad and content measurement, audience insights, and products development

    Ads and content can be personalised based on a profile. More data can be added to better personalise ads and content. Ad and content performance can be measured. Insights about the audience who saw the ads and content can be derived. Such data can be used to develop or improve user’s experience, systems and software.

By clicking ‘I Agree’ you will allow the use of indicated cookies, device identifiers, web beacons or other similar technologies. Your settings can be changed in the browser on your device.

For certain purposes, legitimate interests may be relied on, rather than consent. You can read more about this in our Privacy and Cookie Policy.